When you browse on this site, cookies collect data to enhance your experience and personalize the content and advertising you see.
Visit our Privacy Policy to learn more. By continuing to use the site, you agree to this use of cookies and data.
  • In Hungary
  • List of Countries
  • For 7 days
  • Water Temperature
  • Satellite Maps
  • Weather Map
  • News
  • Weather Widgets
  • user-avatar
    Login

    Hourly Weather Kanniyakumari

    Today, 19 July, Friday

    Time Temperature Precipitation Wind Pressure Humidity
    00:00 +27°C° 2.3 mm 13 mps 754 mmHg 88%
    01:00 +27°C° 2.3 mm 13 mps 753 mmHg 88%
    02:00 +27°C° 2.3 mm 12 mps 753 mmHg 89%
    03:00 +27°C° 3.2 mm 12 mps 753 mmHg 89%
    04:00 +27°C° 3.2 mm 12 mps 753 mmHg 89%
    05:00 +27°C° 0 mm 10 mps 753 mmHg 85%
    06:00 +27°C° 0.4 mm 10 mps 753 mmHg 84%
    07:00 +28°C° 0.4 mm 10 mps 754 mmHg 83%
    08:00 +28°C° 0.4 mm 10 mps 754 mmHg 83%
    09:00 +28°C° 0.6 mm 11 mps 754 mmHg 82%
    10:00 +28°C° 0.6 mm 12 mps 754 mmHg 82%
    11:00 +28°C° 0.6 mm 13 mps 755 mmHg 81%
    12:00 +28°C° 0 mm 13 mps 754 mmHg 79%
    13:00 +28°C° 0 mm 12 mps 753 mmHg 77%
    14:00 +28°C° 0 mm 12 mps 753 mmHg 75%
    15:00 +28°C° 0 mm 12 mps 753 mmHg 76%
    16:00 +28°C° 0 mm 12 mps 753 mmHg 76%
    17:00 +28°C° 0 mm 12 mps 753 mmHg 77%
    18:00 +28°C° 0 mm 12 mps 753 mmHg 78%
    19:00 +27°C° 0 mm 11 mps 754 mmHg 78%
    20:00 +27°C° 0 mm 11 mps 754 mmHg 79%
    21:00 +27°C° 0 mm 11 mps 754 mmHg 79%
    22:00 +27°C° 0 mm 11 mps 754 mmHg 79%
    23:00 +27°C° 0 mm 11 mps 755 mmHg 79%

    Tomorrow, 20 July, Saturday

    Time Temperature Precipitation Wind Pressure Humidity
    00:00 +27°C° 0 mm 11 mps 754 mmHg 79%
    01:00 +27°C° 0 mm 11 mps 753 mmHg 78%
    02:00 +27°C° 0 mm 11 mps 753 mmHg 78%
    03:00 +27°C° 0 mm 11 mps 753 mmHg 79%
    04:00 +27°C° 0 mm 10 mps 753 mmHg 80%
    05:00 +27°C° 0 mm 10 mps 753 mmHg 80%
    06:00 +28°C° 0 mm 10 mps 753 mmHg 78%
    07:00 +28°C° 0 mm 10 mps 753 mmHg 75%
    08:00 +29°C° 0 mm 10 mps 754 mmHg 72%
    09:00 +31°C° 0 mm 10 mps 754 mmHg 68%
    10:00 +33°C° 0 mm 10 mps 754 mmHg 64%
    11:00 +34°C° 0 mm 10 mps 754 mmHg 59%
    12:00 +34°C° 0 mm 10 mps 754 mmHg 59%
    13:00 +34°C° 0 mm 10 mps 753 mmHg 59%
    14:00 +34°C° 0 mm 10 mps 753 mmHg 59%
    15:00 +33°C° 0.1 mm 10 mps 752 mmHg 63%
    16:00 +32°C° 0.1 mm 10 mps 752 mmHg 67%
    17:00 +31°C° 0.1 mm 10 mps 752 mmHg 71%
    18:00 +31°C° 0.1 mm 10 mps 753 mmHg 73%
    19:00 +29°C° 0.1 mm 10 mps 753 mmHg 76%
    20:00 +28°C° 0.1 mm 9 mps 754 mmHg 78%
    21:00 +28°C° 0.1 mm 9 mps 754 mmHg 79%
    22:00 +28°C° 0.1 mm 9 mps 754 mmHg 79%
    23:00 +28°C° 0.1 mm 9 mps 755 mmHg 79%

    Day after tomorrow, 21 July, Sunday

    Time Temperature Precipitation Wind Pressure Humidity
    00:00 +28°C° 0.2 mm 9 mps 754 mmHg 79%
    01:00 +28°C° 0.2 mm 9 mps 754 mmHg 79%
    02:00 +28°C° 0.2 mm 9 mps 753 mmHg 80%
    03:00 +28°C° 0.4 mm 9 mps 753 mmHg 80%
    04:00 +28°C° 0.4 mm 9 mps 753 mmHg 81%
    05:00 +28°C° 0.4 mm 9 mps 753 mmHg 81%
    06:00 +28°C° 0.2 mm 9 mps 753 mmHg 80%
    07:00 +28°C° 0.2 mm 9 mps 754 mmHg 78%
    08:00 +29°C° 0.2 mm 9 mps 755 mmHg 76%
    09:00 +29°C° 0.1 mm 9 mps 754 mmHg 74%
    10:00 +31°C° 0.1 mm 10 mps 754 mmHg 72%
    11:00 +31°C° 0.1 mm 10 mps 754 mmHg 70%
    12:00 +32°C° 0.1 mm 10 mps 754 mmHg 69%
    13:00 +32°C° 0.1 mm 10 mps 753 mmHg 68%
    14:00 +32°C° 0.1 mm 10 mps 752 mmHg 66%
    15:00 +32°C° 0.1 mm 10 mps 752 mmHg 69%
    16:00 +31°C° 0.1 mm 10 mps 752 mmHg 71%
    17:00 +31°C° 0.1 mm 10 mps 752 mmHg 73%
    18:00 +29°C° 0.1 mm 10 mps 752 mmHg 75%
    19:00 +29°C° 0.1 mm 10 mps 753 mmHg 76%
    20:00 +29°C° 0.1 mm 9 mps 754 mmHg 78%
    21:00 +28°C° 0.3 mm 10 mps 754 mmHg 79%
    22:00 +28°C° 0.3 mm 10 mps 754 mmHg 81%
    23:00 +28°C° 0.3 mm 10 mps 754 mmHg 83%

    22 July, Monday

    Time Temperature Precipitation Wind Pressure Humidity
    00:00 +28°C° 0.3 mm 10 mps 753 mmHg 83%
    01:00 +27°C° 0.3 mm 10 mps 753 mmHg 84%
    02:00 +27°C° 0.3 mm 11 mps 752 mmHg 85%
    03:00 +27°C° 0.2 mm 11 mps 752 mmHg 85%
    04:00 +27°C° 0.2 mm 11 mps 752 mmHg 85%
    05:00 +27°C° 0.2 mm 11 mps 752 mmHg 85%
    06:00 +27°C° 0.1 mm 11 mps 753 mmHg 85%
    07:00 +27°C° 0.1 mm 11 mps 753 mmHg 85%
    08:00 +27°C° 0.1 mm 11 mps 754 mmHg 85%
    09:00 +28°C° 0.2 mm 11 mps 754 mmHg 83%
    10:00 +28°C° 0.2 mm 11 mps 753 mmHg 81%
    11:00 +29°C° 0.2 mm 10 mps 753 mmHg 79%
    12:00 +28°C° 0.4 mm 11 mps 753 mmHg 80%
    13:00 +28°C° 0.4 mm 11 mps 752 mmHg 81%
    14:00 +28°C° 0.4 mm 11 mps 751 mmHg 82%
    15:00 +28°C° 0.2 mm 11 mps 751 mmHg 82%
    16:00 +28°C° 0.2 mm 11 mps 751 mmHg 83%
    17:00 +28°C° 0.2 mm 11 mps 751 mmHg 84%
    18:00 +27°C° 0.1 mm 12 mps 752 mmHg 84%
    19:00 +27°C° 0.1 mm 12 mps 753 mmHg 85%
    20:00 +27°C° 0.1 mm 12 mps 753 mmHg 85%
    21:00 +27°C° 0.1 mm 12 mps 753 mmHg 85%
    22:00 +27°C° 0.1 mm 12 mps 753 mmHg 85%
    23:00 +27°C° 0.1 mm 12 mps 753 mmHg 85%

    23 July, Tuesday

    Time Temperature Precipitation Wind Pressure Humidity
    00:00 +27°C° 0 mm 12 mps 753 mmHg 84%
    01:00 +27°C° 0 mm 12 mps 752 mmHg 82%
    02:00 +27°C° 0 mm 12 mps 752 mmHg 81%
    03:00 +27°C° 0 mm 12 mps 751 mmHg 81%
    04:00 +27°C° 0 mm 12 mps 751 mmHg 81%
    05:00 +27°C° 0 mm 12 mps 751 mmHg 81%
    06:00 +27°C° 0 mm 12 mps 752 mmHg 78%
    07:00 +28°C° 0 mm 11 mps 752 mmHg 75%
    08:00 +29°C° 0 mm 11 mps 753 mmHg 72%
    09:00 +31°C° 0 mm 11 mps 753 mmHg 69%
    10:00 +32°C° 0 mm 11 mps 753 mmHg 65%
    11:00 +32°C° 0 mm 11 mps 753 mmHg 62%
    12:00 +33°C° 0.1 mm 11 mps 752 mmHg 61%
    13:00 +33°C° 0.1 mm 11 mps 752 mmHg 61%
    14:00 +33°C° 0.1 mm 11 mps 751 mmHg 61%
    15:00 +32°C° 0.1 mm 11 mps 751 mmHg 64%
    16:00 +31°C° 0.1 mm 10 mps 752 mmHg 67%
    17:00 +31°C° 0.1 mm 10 mps 752 mmHg 70%
    18:00 +29°C° 0.1 mm 10 mps 752 mmHg 72%
    19:00 +29°C° 0.1 mm 9 mps 753 mmHg 75%
    20:00 +28°C° 0.1 mm 9 mps 753 mmHg 77%
    21:00 +28°C° 0.1 mm 9 mps 753 mmHg 77%
    22:00 +28°C° 0.1 mm 9 mps 753 mmHg 78%
    23:00 +28°C° 0.1 mm 9 mps 754 mmHg 78%

    24 July, Wednesday

    Time Temperature Precipitation Wind Pressure Humidity
    00:00 +28°C° 0.2 mm 9 mps 753 mmHg 79%
    01:00 +28°C° 0.2 mm 9 mps 753 mmHg 80%
    02:00 +27°C° 0.2 mm 9 mps 752 mmHg 81%
    03:00 +27°C° 0.3 mm 9 mps 752 mmHg 81%
    04:00 +27°C° 0.3 mm 9 mps 752 mmHg 81%
    05:00 +27°C° 0.3 mm 9 mps 752 mmHg 81%
    06:00 +28°C° 0.4 mm 9 mps 753 mmHg 79%
    07:00 +29°C° 0.4 mm 9 mps 753 mmHg 77%
    08:00 +29°C° 0.4 mm 8 mps 754 mmHg 74%
    09:00 +31°C° 0.2 mm 9 mps 754 mmHg 71%
    10:00 +32°C° 0.2 mm 9 mps 754 mmHg 67%
    11:00 +33°C° 0.2 mm 9 mps 754 mmHg 63%
    12:00 +33°C° 0.4 mm 9 mps 753 mmHg 63%
    13:00 +33°C° 0.4 mm 10 mps 753 mmHg 63%
    14:00 +33°C° 0.4 mm 10 mps 752 mmHg 62%
    15:00 +33°C° 0.3 mm 10 mps 752 mmHg 66%
    16:00 +32°C° 0.3 mm 10 mps 752 mmHg 69%
    17:00 +31°C° 0.3 mm 10 mps 752 mmHg 73%
    18:00 +29°C° 0.3 mm 9 mps 753 mmHg 76%
    19:00 +29°C° 0.3 mm 9 mps 753 mmHg 79%
    20:00 +28°C° 0.3 mm 8 mps 754 mmHg 82%
    21:00 +28°C° 0.6 mm 8 mps 754 mmHg 82%
    22:00 +28°C° 0.6 mm 8 mps 754 mmHg 82%
    23:00 +28°C° 0.6 mm 8 mps 755 mmHg 82%
    Show more